Voltar ao catálogo

FENGYUN 1C DEB

AtivoSSO
NORAD 30200·DEBRIS·🇨🇳 China

Lançado May 10, 1999 de Taiyuan Satellite Launch Center

Loading…

Próximas Passagens (próximas 24 horas)

TLE

AtualizadoSource: Space-Track

Época: Sep 14, 2026, 07:47 UTC

1 30200U 99025VH  26257.32445287  .00000150  00000-0  79337-4 0  9996
2 30200  99.0945 106.2510 0147093  31.7562 329.2383 14.22461938 18960

Acompanhe FENGYUN 1C DEB em tempo real com AllMySat

Download on the App Store